[[{"header":{"parameterUnit":"m.s-1","parameterCategory":1,"la1":30.2991,"la2":30.254,"lo1":-89.0895,"lo2":-89.0444,"dy":0.0017,"dx":0.0017,"nx":28,"ny":28,"refTime":"2024-05-06T09:00:00:Z","depth":0,"parameterNumber":2,"parameterNumberName":"U-component_of_WINDS"},"data":[0,0,0,0,0,0,0,0,0,0,0,0,0,0,0,0,0,0,0,0,0,0,0,0,0,0,0,0,0,0,0,0,0,0,0,0,0,0,0,0,0,0,0,0,0,0,0,0,0,0,0,0,0,0,0,0,0,0,-2.3121,-2.3121,0,-2.3124,-2.3124,-2.3124,-2.31,-2.31,-2.3099,-2.3098,-2.3102,-2.3103,-2.3104,0,0,0,0,0,0,0,0,0,0,0,0,0,-2.3098,-2.3099,-2.3121,-2.3121,-2.3121,-2.3124,-2.3124,-2.3124,-2.31,-2.31,-2.3099,-2.3098,-2.3102,-2.3103,-2.3104,0,0,0,0,0,0,0,0,0,0,0,0,0,-2.3105,-2.3099,-2.3121,-2.311,-2.3109,-2.3124,-2.3124,-2.3124,-2.3101,-2.31,-2.3099,-2.3098,-2.3102,-2.3103,-2.3104,-2.3131,0,0,-2.3107,-2.3108,0,0,0,0,0,0,0,0,-2.3105,-2.3106,-2.3112,-2.3111,-2.311,-2.3111,-2.3117,-2.3126,-2.3101,-2.3104,-2.3098,-2.3097,-2.3106,-2.3107,-2.311,-2.3131,-2.3131,-2.3108,-2.3108,-2.3109,-2.3109,0,0,0,0,0,0,0,-2.3105,-2.3106,-2.3122,-2.3112,-2.3111,-2.3105,-2.3105,-2.3119,-2.3111,-2.3103,-2.3102,-2.3102,-2.3105,-2.3109,-2.3109,-2.3131,-2.3108,-2.3108,-2.3109,-2.311,-2.3175,-2.3176,0,0,0,0,0,0,-2.3105,-2.3106,-2.3122,-2.3123,-2.3105,-2.3107,-2.3107,-2.3111,-2.311,-2.3109,-2.3103,-2.3101,-2.3107,-2.3108,-2.311,-2.314,-2.3109,-2.311,-2.311,-2.3174,-2.3176,-2.3177,0,0,0,0,0,0,-2.3105,-2.3107,-2.3122,-2.3114,-2.3115,-2.3108,-2.3114,-2.3112,-2.3115,-2.311,-2.3109,-2.3108,-2.3106,-2.3108,-2.3126,-2.314,-2.311,-2.3111,-2.3173,-2.3175,-2.3176,-2.3202,0,0,0,0,0,0,-2.3104,-2.3107,-2.3116,-2.3114,-2.3116,-2.3138,-2.3115,-2.3113,-2.3117,-2.3114,-2.3114,-2.3113,-2.3106,-2.3124,-2.3127,-2.3141,-2.3112,-2.3172,-2.3174,-2.3176,-2.32,-2.3205,-2.3209,0,0,0,0,0,-2.3104,-2.3124,-2.3117,-2.3119,-2.3127,-2.3138,-2.314,-2.313,-2.3118,-2.3128,-2.3125,-2.3113,-2.3139,-2.3126,-2.3129,-2.3144,-2.3171,-2.3173,-2.3175,-2.3198,-2.3204,-2.3209,0,0,0,0,0,0,-2.3128,-2.3123,-2.3116,-2.3136,-2.3138,-2.3134,-2.3146,-2.3137,-2.3142,-2.314,-2.3129,-2.3129,-2.3149,-2.3148,-2.3135,-2.317,-2.3153,-2.3156,-2.3169,-2.3174,-2.3178,-2.3177,-2.3113,0,0,0,0,0,-2.3136,-2.3145,-2.3141,-2.3159,-2.316,-2.3153,-2.3158,-2.3151,-2.3153,-2.3153,-2.3152,-2.3154,-2.3163,-2.3169,-2.3177,-2.3201,-2.3201,-2.3213,-2.3217,-2.322,-2.3223,-2.3236,-2.3241,-2.3185,-2.3185,-2.3185,0,0,-2.3152,-2.3151,-2.3157,-2.3164,-2.3164,-2.3174,-2.3154,-2.3165,-2.3173,-2.3155,-2.3171,-2.3171,-2.3173,-2.3194,-2.3203,-2.3194,-2.3239,-2.3224,-2.3226,-2.3227,-2.3239,-2.3244,-2.3249,-2.3186,-2.3186,-2.3186,0,0,-2.3186,-2.3186,-2.3201,-2.3203,-2.3204,-2.3199,-2.3203,-2.3202,-2.32,-2.3217,-2.3204,-2.3213,-2.3228,-2.323,-2.3234,-2.3271,-2.326,-2.3274,-2.3295,-2.3308,-2.3312,-2.3316,-2.3329,-2.3334,-2.3276,-2.3277,-2.3277,0,-2.3206,-2.322,-2.321,-2.3223,-2.3226,-2.3211,-2.3226,-2.3229,-2.3233,-2.3236,-2.3226,-2.3245,-2.3246,-2.3267,-2.3276,-2.328,-2.3284,-2.3273,-2.3312,-2.3316,-2.332,-2.3332,-2.3336,-2.3278,-2.3278,-2.3278,-2.3278,0,-2.3244,-2.3254,-2.3267,-2.327,-2.3275,-2.3289,-2.3283,-2.3289,-2.3283,-2.3279,-2.3297,-2.3297,-2.3305,-2.331,-2.3303,-2.3331,-2.3325,-2.3314,-2.3296,-2.3327,-2.3338,-2.3342,-2.328,-2.328,-2.3279,-2.3279,0,0,-2.3292,-2.3291,-2.3296,-2.3297,-2.3299,-2.3306,-2.3321,-2.3328,-2.3333,-2.3338,-2.3349,-2.3363,-2.3353,-2.3357,-2.3351,-2.3362,-2.3391,-2.335,-2.335,-2.3357,-2.3421,-2.3428,-2.3433,-2.3385,-2.3386,-2.3386,-2.342,0,-2.3325,-2.3347,-2.3339,-2.3363,-2.3372,-2.3358,-2.3371,-2.3373,-2.3371,-2.338,-2.3378,-2.3387,-2.3374,-2.3376,-2.3387,-2.3385,-2.3404,-2.3383,-2.3395,-2.3396,-2.3393,-2.3439,-2.3447,-2.3479,-2.3425,-2.3425,-2.3426,0,-2.3365,-2.337,-2.3394,-2.3394,-2.3398,-2.3408,-2.3415,-2.3423,-2.3426,-2.3424,-2.3429,-2.3421,-2.3435,-2.3419,-2.3439,-2.3425,-2.343,-2.343,-2.3431,-2.3431,-2.3412,-2.3439,-2.3489,-2.3493,-2.3433,-2.3432,-2.3432,0,-2.3397,-2.341,-2.3426,-2.3428,-2.3428,-2.3436,-2.3437,-2.3439,-2.3444,-2.345,-2.3454,-2.3462,-2.3466,-2.3473,-2.3468,-2.3456,-2.3489,-2.3471,-2.3487,-2.3487,-2.3493,-2.3493,-2.3543,-2.3499,-2.3499,-2.3499,-2.3498,0,-2.3433,-2.3448,-2.344,-2.3449,-2.3466,-2.3458,-2.3475,-2.3475,-2.3477,-2.3487,-2.3477,-2.3487,-2.348,-2.3489,-2.3486,-2.3503,-2.3505,-2.3504,-2.3502,-2.3504,-2.3504,-2.3506,-2.3503,-2.35,-2.35,-2.3499,-2.3499,0,-2.347,-2.3466,-2.3482,-2.3481,-2.3482,-2.3494,-2.3494,-2.3503,-2.3501,-2.3514,-2.3517,-2.3513,-2.3524,-2.352,-2.3532,-2.3529,-2.3551,-2.3547,-2.3549,-2.3548,-2.3564,-2.3562,-2.3616,-2.3623,-2.3575,-2.3576,-2.3576,0,-2.3493,-2.3504,-2.3505,-2.3511,-2.3512,-2.3521,-2.3526,-2.352,-2.3526,-2.3531,-2.354,-2.3549,-2.3556,-2.3575,-2.3574,-2.3583,-2.3579,-2.3597,-2.358,-2.3581,-2.3578,-2.3577,-2.3578,-2.36,-2.3601,-2.3601,-2.3601,0,-2.3534,-2.3531,-2.3538,-2.3545,-2.3552,-2.3557,-2.3561,-2.3567,-2.356,-2.3568,-2.3578,-2.3584,-2.3596,-2.3606,-2.3614,-2.3616,-2.3608,-2.3607,-2.3611,-2.3612,-2.3613,-2.3612,-2.3557,-2.3606,-2.3605,-2.3605,-2.3605,-2.3604,-2.3564,-2.3573,-2.3575,-2.3584,-2.3587,-2.3591,-2.36,-2.3599,-2.3607,-2.3616,-2.3612,-2.3624,-2.3629,-2.3639,-2.3642,-2.3652,-2.3645,-2.3651,-2.3652,-2.3653,-2.3655,-2.3612,-2.3654,-2.3654,-2.3653,-2.3653,-2.3653,0,-2.3604,-2.3605,-2.3613,-2.3619,-2.3626,-2.3618,-2.3623,-2.3629,-2.364,-2.3644,-2.3652,-2.3664,-2.3674,-2.3675,-2.3684,-2.3692,-2.3689,-2.3695,-2.3693,-2.3694,-2.3661,-2.3656,-2.3697,-2.3697,-2.3697,-2.3697,-2.3697,-2.3697,-2.3625,-2.364,-2.3638,-2.3655,-2.3656,-2.3667,-2.3671,-2.3675,-2.3678,-2.3692,-2.37,-2.3701,-2.3703,-2.3713,-2.3722,-2.3722,-2.3726,-2.3733,-2.3732,-2.3701,-2.3696,-2.3692,-2.3687,-2.3734,-2.3734,-2.3764,-2.3764,-2.3764]},{"header":{"parameterUnit":"m.s-1","parameterCategory":1,"la1":30.2991,"la2":30.254,"lo1":-89.0895,"lo2":-89.0444,"dy":0.0017,"dx":0.0017,"nx":28,"ny":28,"refTime":"2024-05-06T09:00:00:Z","depth":0,"parameterNumber":3,"parameterNumberName":"V-component_of_WINDS"},"data":[0,0,0,0,0,0,0,0,0,0,0,0,0,0,0,0,0,0,0,0,0,0,0,0,0,0,0,0,0,0,0,0,0,0,0,0,0,0,0,0,0,0,0,0,0,0,0,0,0,0,0,0,0,0,0,0,0,0,4.1994,4.1994,0,4.2041,4.2041,4.2042,4.2058,4.2058,4.2057,4.2057,4.2103,4.2104,4.2106,0,0,0,0,0,0,0,0,0,0,0,0,0,4.1915,4.1916,4.1994,4.1994,4.1995,4.2041,4.2041,4.2042,4.2058,4.2058,4.2057,4.2057,4.2102,4.2104,4.2106,0,0,0,0,0,0,0,0,0,0,0,0,0,4.1954,4.1917,4.1994,4.2008,4.201,4.2041,4.2042,4.2042,4.2058,4.2057,4.2057,4.2057,4.2102,4.2104,4.2106,4.2125,0,0,4.2112,4.2113,0,0,0,0,0,0,0,0,4.1952,4.1957,4.2006,4.2007,4.2009,4.2043,4.203,4.207,4.2058,4.204,4.2057,4.2057,4.2083,4.2087,4.2096,4.2127,4.2129,4.2113,4.2114,4.2115,4.2115,0,0,0,0,0,0,0,4.1949,4.1955,4.2012,4.2006,4.2009,4.2012,4.2017,4.2038,4.2062,4.2041,4.2042,4.2048,4.2084,4.2094,4.2097,4.2129,4.2113,4.2114,4.2116,4.2117,4.2178,4.2178,0,0,0,0,0,0,4.1944,4.1953,4.2011,4.2014,4.1979,4.2013,4.2019,4.2033,4.2062,4.2066,4.2048,4.2048,4.2091,4.2095,4.2099,4.2123,4.2115,4.2117,4.2118,4.2177,4.2178,4.2178,0,0,0,0,0,0,4.1942,4.1949,4.2009,4.1984,4.1991,4.2015,4.203,4.2034,4.2044,4.2067,4.2072,4.2054,4.2091,4.2096,4.2118,4.2125,4.2118,4.212,4.2177,4.2178,4.2178,4.2172,0,0,0,0,0,0,4.194,4.1949,4.1957,4.1984,4.1993,4.2028,4.203,4.2035,4.2048,4.2049,4.2074,4.2078,4.2091,4.2115,4.212,4.2128,4.2121,4.2177,4.2177,4.2178,4.2171,4.2172,4.2172,0,0,0,0,0,4.1937,4.1952,4.1957,4.1964,4.2003,4.2029,4.2034,4.2049,4.2048,4.2056,4.2071,4.2077,4.2123,4.2117,4.2123,4.2132,4.2176,4.2177,4.2178,4.2171,4.2172,4.2172,0,0,0,0,0,0,4.1925,4.1956,4.1962,4.1986,4.2005,4.2031,4.2042,4.2049,4.2068,4.2068,4.2085,4.209,4.2111,4.2123,4.2116,4.2151,4.215,4.2152,4.2143,4.2144,4.2144,4.2141,4.2123,0,0,0,0,0,4.1925,4.1944,4.197,4.1989,4.1998,4.2018,4.203,4.204,4.2059,4.2067,4.2084,4.2102,4.2121,4.2133,4.2151,4.2173,4.2179,4.2181,4.2182,4.2182,4.2184,4.2197,4.2198,4.2181,4.2181,4.2181,0,0,4.1925,4.1945,4.1956,4.1987,4.2002,4.2021,4.2025,4.2044,4.2058,4.207,4.2093,4.2105,4.2126,4.2149,4.2159,4.216,4.219,4.2183,4.2183,4.2185,4.2198,4.2199,4.2201,4.2182,4.2181,4.2181,0,0,4.1936,4.1952,4.197,4.1986,4.201,4.2023,4.2027,4.2053,4.2062,4.2085,4.2095,4.2111,4.2142,4.2157,4.2169,4.2184,4.2191,4.2189,4.2192,4.2205,4.2206,4.2207,4.2213,4.2215,4.2191,4.2191,4.2191,0,4.1933,4.1963,4.1978,4.1998,4.2011,4.2023,4.2041,4.2055,4.2083,4.2092,4.2092,4.2132,4.2147,4.2173,4.2177,4.2185,4.2191,4.2187,4.2205,4.2206,4.2207,4.2213,4.2216,4.2191,4.2191,4.2191,4.2191,0,4.1958,4.1978,4.199,4.2018,4.2032,4.205,4.2069,4.2081,4.2089,4.2102,4.2125,4.2144,4.2166,4.2173,4.2181,4.22,4.2199,4.2201,4.2201,4.2209,4.2215,4.2217,4.219,4.2191,4.2191,4.2191,0,0,4.1964,4.2,4.2004,4.2017,4.2044,4.2059,4.2077,4.21,4.2111,4.2129,4.2145,4.2171,4.2174,4.2187,4.2196,4.2207,4.2218,4.2208,4.2208,4.221,4.2241,4.224,4.2242,4.2222,4.2223,4.2223,4.2239,0,4.1978,4.2013,4.2028,4.2056,4.2074,4.2086,4.2102,4.2119,4.2132,4.2148,4.2161,4.218,4.2181,4.2189,4.22,4.2215,4.2225,4.2213,4.2237,4.2238,4.2233,4.2246,4.2245,4.226,4.2242,4.2242,4.2242,0,4.2001,4.2021,4.2051,4.2075,4.2084,4.2098,4.212,4.2136,4.2156,4.2164,4.2178,4.2187,4.2206,4.2203,4.223,4.2222,4.2232,4.224,4.2241,4.2245,4.2241,4.225,4.2264,4.2267,4.2246,4.2246,4.2246,0,4.2003,4.2036,4.2059,4.2069,4.2099,4.2108,4.2121,4.214,4.2153,4.2172,4.218,4.22,4.2211,4.2226,4.224,4.2237,4.2265,4.2263,4.2272,4.2272,4.2279,4.2279,4.2296,4.2283,4.2283,4.2283,4.2283,0,4.2018,4.2037,4.206,4.2074,4.2095,4.211,4.213,4.2143,4.216,4.2176,4.2186,4.2201,4.2218,4.2234,4.2245,4.2265,4.2269,4.2276,4.2279,4.2276,4.2276,4.2284,4.2284,4.2284,4.2284,4.2284,4.2284,0,4.2025,4.2041,4.2067,4.2092,4.2099,4.2113,4.2134,4.2148,4.216,4.218,4.2186,4.2205,4.2225,4.224,4.2265,4.2272,4.2294,4.2297,4.2288,4.229,4.2299,4.2298,4.2323,4.2327,4.2311,4.2311,4.2311,0,4.2034,4.2049,4.2076,4.2088,4.21,4.2119,4.2132,4.2148,4.2161,4.2184,4.2195,4.2216,4.2233,4.2264,4.228,4.23,4.2303,4.2311,4.2306,4.2303,4.2305,4.2304,4.2306,4.2312,4.2312,4.2312,4.2312,0,4.205,4.2058,4.2077,4.2099,4.2114,4.2132,4.215,4.2159,4.2177,4.2191,4.2212,4.2226,4.2252,4.2273,4.2294,4.2305,4.2312,4.2313,4.2316,4.2314,4.2309,4.2313,4.2291,4.2313,4.2313,4.2312,4.2312,4.2312,4.2059,4.2073,4.2094,4.2115,4.213,4.2146,4.216,4.2174,4.2193,4.2216,4.2223,4.2245,4.2264,4.2293,4.2305,4.2321,4.2321,4.2326,4.2327,4.2329,4.2329,4.2305,4.2325,4.2325,4.2325,4.2325,4.2325,0,4.2076,4.209,4.2109,4.2134,4.2151,4.2155,4.2175,4.2188,4.2208,4.2225,4.2242,4.2266,4.2286,4.2303,4.2323,4.2333,4.2337,4.2338,4.2338,4.2341,4.2327,4.2323,4.2335,4.2335,4.2335,4.2335,4.2335,4.2335,4.2087,4.211,4.212,4.215,4.2164,4.2186,4.2197,4.2212,4.2226,4.2253,4.227,4.2281,4.2298,4.232,4.2338,4.2342,4.2349,4.235,4.2356,4.2343,4.2342,4.2341,4.2337,4.2352,4.2352,4.2368,4.2368,4.2368]}]]